International Skating Union - Official Site

ISU World Cup Speed Skating Final
March 11-12, 2017

Draw | Lap Times | Index | World Cup

Referee: Daniel  CABELDUC  (SWE)
Starter: Jouko  VESTERLUND  (FIN)
StartTime: EndTime: Air Temp: Ice Temp: Humidity:
11:19 11:27 14.8 ℃ -6.8 ℃ 40%
Result Team Pursuit Ladies
Rankings as of Mar 11 2017 11:53AM
Rank: No.: Team: Nation: Time: Behind: Points:
Total 4
1 2 Japan (119) Misaki Oshigiri (121) Miho Takagi (122) Nana Takagi (120) Ayano Sato JPN JPN 3:00.600.5 - 18.52 - (18.5)
1.0 - 32.46 - (13.9)
1.5 - 46.46 - (14.0)
2.0 - 1:00.62 - (14.1)
2.5 - 1:15.06 - (14.4)
3.0 - 1:29.86 - (14.7)
3.5 - 1:44.44 - (14.5)
4.0 - 1:59.25 - (14.8)
4.5 - 2:14.28 - (15.0)
5.0 - 2:29.68 - (15.4)
5.5 - 2:45.15 - (15.4)
6.0 - 3:00.60 - (15.4)
150
2 3 Netherlands (135) Melissa Wijfje (129) Marije Joling (133) Annouk van der Weijden (127) Antoinette de Jong NED NED 3:02.420.5 - 18.75 - (18.7)
1.0 - 32.83 - (14.0)
1.5 - 46.96 - (14.1)
2.0 - 1:01.36 - (14.3)
2.5 - 1:16.04 - (14.6)
3.0 - 1:30.92 - (14.8)
3.5 - 1:45.96 - (15.0)
4.0 - 2:01.11 - (15.1)
4.5 - 2:16.11 - (15.0)
5.0 - 2:31.38 - (15.2)
5.5 - 2:46.77 - (15.3)
6.0 - 3:02.42 - (15.6)
1.82 120
3 6 Russia (146) Olga Graf (147) Elizaveta Kazelina (149) Natalia Voronina (148) Yekaterina Shikhova RUS RUS 3:02.930.5 - 19.35 - (19.3)
1.0 - 33.89 - (14.5)
1.5 - 48.48 - (14.5)
2.0 - 1:03.15 - (14.6)
2.5 - 1:18.04 - (14.8)
3.0 - 1:32.75 - (14.7)
3.5 - 1:47.79 - (15.0)
4.0 - 2:02.79 - (15.0)
4.5 - 2:17.99 - (15.2)
5.0 - 2:33.00 - (15.0)
5.5 - 2:47.94 - (14.9)
6.0 - 3:02.93 - (14.9)
2.33 104
4 1 Germany (112) Gabriele Hirschbichler (113) Bente Kraus (114) Claudia Pechstein (111) Roxanne Dufter GER GER 3:03.930.5 - 19.21 - (19.2)
1.0 - 33.45 - (14.2)
1.5 - 47.76 - (14.3)
2.0 - 1:02.09 - (14.3)
2.5 - 1:16.74 - (14.6)
3.0 - 1:31.29 - (14.5)
3.5 - 1:46.19 - (14.8)
4.0 - 2:01.28 - (15.0)
4.5 - 2:16.79 - (15.5)
5.0 - 2:32.35 - (15.5)
5.5 - 2:48.19 - (15.8)
6.0 - 3:03.93 - (15.7)
3.33 90